Location: Unspecified
(0.0000°N, 0.0000°E)
Time: 14:42:25
(UTC+00:00)

SKYMED 2 - Visible Passes

Search period start: 23 February 2024 00:00
Search period end: 04 March 2024 00:00
Orbit: 621 x 623 km, 97.9° (Epoch: 23 February)

Date Brightness Start Highest point End Pass type
(mag) Time Alt. Az. Time Alt. Az. Time Alt. Az.
23 Feb 6.7 04:45:46 10° ESE 04:47:49 13° ENE 04:49:51 10° NE visible
24 Feb 6.0 05:02:20 10° SE 05:05:48 23° ENE 05:09:14 10° NNE visible
24 Feb 7.2 18:49:59 10° WNW 18:50:37 10° WNW 18:51:13 10° W visible
25 Feb 4.9 05:19:40 10° SSE 05:23:47 42° ENE 05:27:52 10° N visible
26 Feb 3.7 05:37:25 10° SSE 05:41:46 79° ENE 05:46:05 10° N visible
28 Feb 6.9 04:40:53 10° E 04:41:50 11° ENE 04:42:47 10° ENE visible
29 Feb 6.4 04:56:41 10° SE 04:59:48 19° ENE 05:02:54 10° NNE visible
29 Feb 6.8 18:42:41 10° NW 18:44:37 13° WNW 18:46:32 10° WSW visible
01 Mar 5.4 05:13:50 10° SE 05:17:46 34° ENE 05:21:41 10° NNE visible
02 Mar 4.1 05:31:27 10° SSE 05:35:45 64° ENE 05:40:01 10° N visible
